Location: Chapel Hill
(35.9134°N, 79.0560°W)
Time: 03:00:41
(UTC-04:00)

ACS3 Solar Sail - Visible Passes

Search period start: 20 May 2026 00:00
Search period end: 30 May 2026 00:00
Orbit: 902 x 937 km, 97.2° (Epoch: 19 May)

Date Brightness Start Highest point End Pass type
(mag) Time Alt. Az. Time Alt. Az. Time Alt. Az.
20 May 2.7 01:24:48 10° NNE 01:29:01 37° ENE 01:29:01 37° ENE visible
20 May 3.1 03:07:45 10° NNW 03:12:23 25° WNW 03:12:29 25° WNW visible
21 May 2.5 01:33:02 10° NNE 01:37:31 45° ENE 01:37:31 45° ENE visible
21 May 3.3 03:16:26 10° NNW 03:20:38 21° WNW 03:20:59 21° WNW visible
22 May 2.2 01:41:17 10° NNE 01:46:01 53° NE 01:46:01 53° NE visible
22 May 3.4 03:25:12 10° NNW 03:28:52 17° WNW 03:29:29 17° WNW visible
23 May 2.0 01:49:35 10° NNE 01:54:31 62° NE 01:54:31 62° NE visible
23 May 3.6 03:34:08 10° NNW 03:37:04 14° WNW 03:37:59 14° WNW visible
24 May 1.9 01:57:54 10° N 02:03:01 68° N 02:03:01 68° N visible
24 May 3.8 03:43:23 10° NW 03:45:16 12° WNW 03:46:28 11° WNW visible
25 May 3.9 00:26:43 10° ENE 00:28:02 12° ENE 00:28:02 12° ENE visible
25 May 1.9 02:06:16 10° N 02:11:30 67° NNW 02:11:30 67° NNW visible
26 May 3.7 00:34:15 10° NE 00:36:31 15° ENE 00:36:31 15° ENE visible
26 May 2.0 02:14:40 10° N 02:19:59 60° NW 02:19:59 60° NW visible
27 May 3.6 00:42:02 10° NE 00:45:00 19° ENE 00:45:00 19° ENE visible
27 May 2.1 02:23:05 10° N 02:28:28 51° WNW 02:28:28 51° WNW visible
28 May 3.3 00:49:58 10° NE 00:53:29 23° ENE 00:53:29 23° ENE visible
28 May 2.3 02:31:32 10° N 02:36:57 43° WNW 02:36:57 43° WNW visible
29 May 3.1 00:58:00 10° NE 01:01:58 27° ENE 01:01:58 27° ENE visible
29 May 2.6 02:40:01 10° N 02:45:22 36° WNW 02:45:25 36° WNW visible
